Kontich, Belgium
Current Conditions -  °F | °C
As of 1:50 AM on Saturday 25 Oct 2014 (Local Time) from EBAW Reporting Station
Overcast Overcast  
Wind Chill: 54°   Ceiling: 600
Heat Index: 54°   Visibility: 4mi
Dew Point: 50°   Wind: 10mph
Humidity: 88%   Direction: 220°SW
Pressure: 30"   Gusts: NA
Location:  51.13°N, 4.45°E
Report Text: EBAW 242350Z AUTO 22009KT 7000 OVC006/// 12/10 Q1016
Loading
Personal Weather Stations






























Interactive Weather Map
Tropical Storm Tracking
New forecast layout! Learn more

10-Day Weather Forecast

Advertisements
Track Severe Weather on mobile